Lexington Weather

Lexington, Massachusetts, USA

78°F
7/25/2024 12:13pm 
  • Lexington Conditions: Mostly cloudy
  • Temperature: 77.9°F / 25.5°CWarmer 1.6°F than last hour.
  • Dew Point: 72.7°FIncreased 0.6°Fsince last hour.
  • Relative Humidity: 84%Decreased 3.0% since last hour.
  • Wind: Wind from W W 3 mph, 10-min avg: 2 mph, gust: 9 mph
  • Barometer: 29.94 in Steady
  • Visibility: 10 miles
  • Rain Today: 0.00 in
  •   

Regional Weather Roundup
for Boston, MA

        
000
ASUS41 KBOX 202010
RWRBOX

REGIONAL WEATHER ROUNDUP
NATIONAL WEATHER SERVICE BOSTON/NORTON MA
400 PM EDT SAT JUL 20 2024

NOTE:  "FAIR" INDICATES FEW OR NO CLOUDS BELOW 12,000 FEET WITH NO 
SIGNIFICANT WEATHER AND/OR OBSTRUCTIONS TO VISIBILITY.

MAZALL-202100-
EASTERN MASSACHUSETTS
  
CITY           SKY/WX    TMP DP  RH WIND       PRES   REMARKS
BOSTON         NOT AVBL                                               
BEVERLY        SUNNY     85  55  35 SW9       30.00F                  
LAWRENCE       SUNNY     85  57  38 SW14G21   30.02F                  
BEDFORD        SUNNY     83  56  39 W10       30.00F                  
NORWOOD        MOSUNNY   87  63  44 SW10      30.02F                  
MARSHFIELD     MOSUNNY   84  59  42 W9G15     30.01F                  
PLYMOUTH       MOSUNNY   84  61  45 SW13      30.02F                  
TAUNTON        MOSUNNY   85  64  49 SW13      30.03F                  
NEW BEDFORD    SUNNY     82  64  54 SW13      30.04F                  
$$

MAZALL-202100-
CAPE COD AND THE ISLANDS
  
CITY           SKY/WX    TMP DP  RH WIND       PRES   REMARKS
FALMOUTH       SUNNY     79  66  65 W14       30.06F                  
HYANNIS        SUNNY     77  67  71 SW16G22   30.04F                  
CHATHAM        SUNNY     79  68  69 SW8       30.06F                  
PROVINCETOWN   SUNNY     80  66  62 SW13G20   30.04F                  
NANTUCKET      SUNNY     75  70  84 SW10      30.07F                  
MARTHAS VNYRD  SUNNY     77  68  73 SW14      30.06F                  
$$
 
MAZALL-202100-
CENTRAL AND WESTERN MASSACHUSETTS
  
CITY           SKY/WX    TMP DP  RH WIND       PRES   REMARKS
WORCESTER      SUNNY     81  57  43 SW10      30.06F                  
FITCHBURG      SUNNY     85  60  42 S15       30.02F                  
ORANGE           N/A     83  59  44 S9        30.03F                  
SPRINGFIELD    PTSUNNY   84  62  46 SW12      29.99F                  
WESTFIELD      PTSUNNY   82  64  54 SW12      30.02F                  
NORTH ADAMS    MOSUNNY   83  61  47 N7        30.02F                  
PITTSFIELD     CLOUDY    77  61  57 S6        30.05S                  
$$
 
RIZALL-202100-
RHODE ISLAND
  
CITY           SKY/WX    TMP DP  RH WIND       PRES   REMARKS
PROVIDENCE     PTSUNNY   82  65  56 S9        30.04F                  
NEWPORT        SUNNY     77  65  66 SW8       30.06F                  
BLOCK ISLAND   MOSUNNY   76  67  73 SW17        N/A                   
SMITHFIELD     SUNNY     81  63  54 VRB7      30.05F                  
WESTERLY       MOSUNNY   80  66  62 SW12      30.06F                  
$$
 
CTZALL-202100-
CONNECTICUT
  
CITY           SKY/WX    TMP DP  RH WIND       PRES   REMARKS
BRADLEY INTL   PTSUNNY   85  64  49 SW12      30.02F                  
HARTFORD       PTSUNNY   83  65  54 S9G18     30.01F                  
PLAINVILLE     MOCLDY    82  67  60 S9        30.02F                  
BRIDGEPORT     MOSUNNY   83  69  62 S10       30.04F                  
DANBURY        MOSUNNY   84  65  52 CALM      30.05F                  
GROTON         MOSUNNY   78  67  68 S5        30.04F                  
NEW HAVEN      MOSUNNY   83  71  67 S7        30.05F                  
CHESTER        MOSUNNY   82  68  61 VRB6      30.06F                  
MERIDEN        PTSUNNY   82  64  54 S15       30.03F                  
WILLIMANTIC    MOSUNNY   81  62  52 SW9       30.04F                  
OXFORD         MOSUNNY   80  68  66 SW12      30.06F                  
$$

MEZ002-015-021-024-NHZ003-005-008-011-012-014-VTZ005-008-202100-
NORTHERN NEW ENGLAND
  
CITY           SKY/WX    TMP DP  RH WIND       PRES   REMARKS
PORTLAND ME    PTSUNNY   84  55  36 SW7G23    29.97F                  
BANGOR ME      PTSUNNY   82  54  37 SW9       29.95F                  
CONCORD NH     SUNNY     85  56  37 VRB6      29.99F                  
MANCHESTER NH  PTSUNNY   86  55  34 SW8       29.98F                  
NASHUA NH      MOSUNNY   86  61  42 W5        30.01F                  
PORTSMOUTH NH  PTSUNNY   85  57  38 S6        29.98F                  
JAFFREY NH     MOSUNNY   84  56  38 W9        30.05F                  
KEENE NH       SUNNY     83  58  42 W8G16     30.01F                  
BURLINGTON VT  MOSUNNY   84  54  35 VRB3      29.98F                  
MT. WASHINGTON PTSUNNY   52  45  76 W31G38      N/A                   
$$

NYZ052-076-202100-
EASTERN NEW YORK
  
CITY           SKY/WX    TMP DP  RH WIND       PRES   REMARKS
ALBANY         PTSUNNY   85  60  42 S8        30.00F                  
NEW YORK CITY  PTSUNNY   84  62  47 S14       30.05F                  
$$
 
ANZALL-202100-
MARINE OBSERVATIONS
  
STATION/POSITION TIME  TEMP    WIND        PRES    VSBY  WAVE
                       AIR SEA DIR/SP/G                  HT/PER
                 (UTC) (F)     (DEG/KT/KT) (MB)    (MI)  (FT/S)
BOSTON BUOY      1950   70 67  140/  4/  6 1016.7F         1/ 8
BUZZARDS BAY     1900   72     220/ 14/ 15 1018.4F
NANTUCKET SOUND  1950   76 76  220/ 16/ 19 1017.3F         2/ 3
MASS BAY-STELLWA 1804   68 63  180/ 10/ 12 1017.7F  1 7/8  1/ 8
ISLE OF SHOALS   1900   72     170/ 15/ 16 1015.7F
S OF BLOCK IS    1956      74                N/A           3/ 8
$$

......................KEY.........................
  SKY/WX - SKY CONDITION/PRESENT WEATHER
  TMP    - TEMPERATURE IN FAHRENHEIT
  DWPT   - DEWPOINT IN FAHRENHEIT
  RH     - RELATIVE HUMIDITY IN PERCENT
  WIND   - DIRECTION AND SPEED IN MPH
  PRES   - MEAN SEA LEVEL PRESSURE IN INCHES OF HG
  WCI    - WIND CHILL INDEX
  VSB    - VISIBILITY IN MILES
  HX     - HEAT INDEX
  TC     - TEMPERATURE IN CELSIUS
  VRB    - VARIABLE WIND DIRECTION
  N/A    - NOT AVAILABLE
  
      

Other recent Regional Weather Roundups

Thu Jul 25, 11:10am EDT

Thu Jul 25, 10:10am EDT

Thu Jul 25, 9:10am EDT

Thu Jul 25, 8:10am EDT

Thu Jul 25, 7:10am EDT

Thu Jul 25, 6:10am EDT

Thu Jul 25, 5:10am EDT

Thu Jul 25, 4:10am EDT

Thu Jul 25, 3:10am EDT

Thu Jul 25, 2:10am EDT

Thu Jul 25, 1:10am EDT

Thu Jul 25, 12:10am EDT

Wed Jul 24, 11:10pm EDT

Wed Jul 24, 10:10pm EDT

Wed Jul 24, 9:10pm EDT

Wed Jul 24, 8:10pm EDT

Wed Jul 24, 7:10pm EDT

Wed Jul 24, 6:10pm EDT

Wed Jul 24, 5:10pm EDT

Wed Jul 24, 4:10pm EDT

Wed Jul 24, 3:10pm EDT

Wed Jul 24, 2:10pm EDT

Wed Jul 24, 1:10pm EDT

Wed Jul 24, 12:10pm EDT

Wed Jul 24, 11:10am EDT

Wed Jul 24, 10:10am EDT

Wed Jul 24, 9:10am EDT

Wed Jul 24, 8:10am EDT

Wed Jul 24, 7:10am EDT

Wed Jul 24, 6:10am EDT

Wed Jul 24, 5:10am EDT

Wed Jul 24, 4:10am EDT

Wed Jul 24, 3:10am EDT

Wed Jul 24, 2:10am EDT

Wed Jul 24, 1:10am EDT

Wed Jul 24, 12:10am EDT

Tue Jul 23, 11:10pm EDT

Tue Jul 23, 10:10pm EDT

Tue Jul 23, 9:10pm EDT

Tue Jul 23, 8:10pm EDT

Tue Jul 23, 7:10pm EDT

Tue Jul 23, 6:10pm EDT

Tue Jul 23, 5:10pm EDT

Tue Jul 23, 4:10pm EDT

Tue Jul 23, 3:10pm EDT

Tue Jul 23, 2:10pm EDT

Tue Jul 23, 1:10pm EDT

Tue Jul 23, 12:10pm EDT

Tue Jul 23, 11:10am EDT

Tue Jul 23, 10:10am EDT

Tue Jul 23, 10:10am EDT

Tue Jul 23, 9:10am EDT

Tue Jul 23, 8:10am EDT

Tue Jul 23, 7:10am EDT

Tue Jul 23, 6:10am EDT

Tue Jul 23, 5:10am EDT

Tue Jul 23, 4:10am EDT

Tue Jul 23, 3:10am EDT

Tue Jul 23, 2:10am EDT

Tue Jul 23, 1:10am EDT

Tue Jul 23, 12:10am EDT

Mon Jul 22, 11:10pm EDT

Mon Jul 22, 10:10pm EDT

Mon Jul 22, 9:10pm EDT

Mon Jul 22, 8:10pm EDT

Mon Jul 22, 7:10pm EDT

Mon Jul 22, 6:10pm EDT

Mon Jul 22, 5:10pm EDT

Mon Jul 22, 4:10pm EDT

Mon Jul 22, 3:10pm EDT

Mon Jul 22, 2:10pm EDT

Mon Jul 22, 1:10pm EDT

Mon Jul 22, 12:10pm EDT

Mon Jul 22, 11:10am EDT

Mon Jul 22, 10:10am EDT

Mon Jul 22, 9:10am EDT

Mon Jul 22, 8:10am EDT

Mon Jul 22, 7:10am EDT

Mon Jul 22, 6:10am EDT

Mon Jul 22, 5:10am EDT

Mon Jul 22, 4:10am EDT

Mon Jul 22, 3:10am EDT

Mon Jul 22, 2:10am EDT

Mon Jul 22, 1:10am EDT

Mon Jul 22, 12:10am EDT

Sun Jul 21, 11:10pm EDT

Sun Jul 21, 10:10pm EDT

Sun Jul 21, 9:10pm EDT

Sun Jul 21, 8:10pm EDT

Sun Jul 21, 7:10pm EDT

Sun Jul 21, 6:10pm EDT

Sun Jul 21, 5:10pm EDT

Sun Jul 21, 4:10pm EDT

Sun Jul 21, 3:10pm EDT

Sun Jul 21, 2:10pm EDT

Sun Jul 21, 1:10pm EDT

Sun Jul 21, 12:10pm EDT

Sun Jul 21, 11:10am EDT

Sun Jul 21, 10:10am EDT

Sun Jul 21, 9:10am EDT

Sun Jul 21, 8:10am EDT

Sun Jul 21, 7:10am EDT

Sun Jul 21, 6:10am EDT

Sun Jul 21, 5:10am EDT

Sun Jul 21, 4:10am EDT

Sun Jul 21, 3:10am EDT

Sun Jul 21, 2:10am EDT

Sun Jul 21, 1:10am EDT

Sun Jul 21, 12:10am EDT

Sat Jul 20, 11:10pm EDT

Sat Jul 20, 10:10pm EDT

Sat Jul 20, 9:10pm EDT

Sat Jul 20, 8:10pm EDT

Sat Jul 20, 7:10pm EDT

Sat Jul 20, 6:10pm EDT

Sat Jul 20, 5:10pm EDT

Sat Jul 20, 3:10pm EDT

Sat Jul 20, 2:10pm EDT

Sat Jul 20, 1:10pm EDT

Sat Jul 20, 12:10pm EDT

Sat Jul 20, 11:10am EDT

Sat Jul 20, 10:10am EDT

Sat Jul 20, 9:10am EDT

Sat Jul 20, 8:10am EDT

Sat Jul 20, 7:10am EDT

Sat Jul 20, 6:10am EDT

Sat Jul 20, 5:10am EDT

Sat Jul 20, 4:10am EDT

Sat Jul 20, 3:10am EDT

Sat Jul 20, 2:10am EDT

Sat Jul 20, 1:10am EDT

Sat Jul 20, 12:10am EDT

Fri Jul 19, 11:10pm EDT

Fri Jul 19, 10:10pm EDT

Fri Jul 19, 9:10pm EDT

Fri Jul 19, 8:10pm EDT

Fri Jul 19, 7:10pm EDT

Fri Jul 19, 6:10pm EDT

Fri Jul 19, 5:10pm EDT

Fri Jul 19, 4:10pm EDT

Fri Jul 19, 3:10pm EDT

Fri Jul 19, 2:10pm EDT

Fri Jul 19, 1:10pm EDT

Fri Jul 19, 12:10pm EDT

Fri Jul 19, 11:10am EDT

Fri Jul 19, 10:10am EDT

Fri Jul 19, 9:10am EDT

Fri Jul 19, 8:10am EDT

Fri Jul 19, 7:10am EDT

Fri Jul 19, 6:10am EDT

Fri Jul 19, 5:10am EDT

Fri Jul 19, 4:10am EDT

Fri Jul 19, 3:10am EDT

Fri Jul 19, 2:10am EDT

Fri Jul 19, 1:10am EDT

Fri Jul 19, 12:10am EDT

Thu Jul 18, 11:10pm EDT

Thu Jul 18, 10:10pm EDT

Thu Jul 18, 9:10pm EDT

Thu Jul 18, 8:10pm EDT

Thu Jul 18, 7:10pm EDT

Thu Jul 18, 6:10pm EDT

Thu Jul 18, 5:10pm EDT

Thu Jul 18, 4:10pm EDT

Thu Jul 18, 3:10pm EDT

Thu Jul 18, 2:10pm EDT

Thu Jul 18, 1:10pm EDT

Thu Jul 18, 12:10pm EDT